Regional Weather Roundup
Issued by NWS

Home | Current Version | Previous Version | Graphics & Text | Print | Product List | Glossary On
Versions: 1 2 3 4 5 6 7 8 9 10 11 12 13 14 15 16 17 18 19 20 21 22 23 24 25 26 27 28 29 30 31 32 33 34 35 36 37 38 39 40 41 42 43 44 45 46 47 48 49 50
000
ASUS44 KMEG 132010
RWRTN
TENNESSEE HOURLY STATE WEATHER ROUNDUP
NATIONAL WEATHER SERVICE MEMPHIS TN
200 PM CST SAT FEB 13 2016

TNZ002-004-019-021-049-052-054-088>092-132100-
WEST TENNESSEE

CITY           SKY/WX    TMP DP  RH WIND       PRES   REMARKS
MEMPHIS INTL   MOSUNNY   38   6  26 VRB6      30.51F WCI  33
NWS MEMPHIS      N/A     36 N/A N/A MISG        N/A
JACKSON        SUNNY     33   7  33 VRB6      30.52F WCI  28
DYERSBURG      SUNNY     30   7  37 NE10      30.56F WCI  21
UNION CITY     SUNNY     27   5  39 VRB6      30.54S WCI  20
PARIS          SUNNY     27   1  33 N6        30.53S WCI  20
LEXINGTON      MOSUNNY   30   0  27 VRB5      30.49F WCI  25
$$

TNZ008-025-027-028-033-062-065-066-132100-
NORTH MIDDLE TENNESSEE

CITY           SKY/WX    TMP DP  RH WIND       PRES   REMARKS
NASHVILLE      MOSUNNY   32   2  27 N13       30.51F WCI  22
CLARKSVILLE    SUNNY     28   3  34 N10       30.54F WCI  19
SMYRNA         SUNNY     32   4  30 N7        30.52F WCI  26
COOKEVILLE     SUNNY     28   7  40 NW8       30.43F WCI  20
CROSSVILLE     SUNNY     27   3  35 NW12      30.37F WCI  17
$$

TNZ061-075-076-078-094-096-097-132100-
SOUTH MIDDLE TENNESSEE

CITY           SKY/WX    TMP DP  RH WIND       PRES   REMARKS
FAYETTEVILLE   SUNNY     34   3  27 N7G13     30.43F WCI  28
TULLAHOMA      SUNNY     30   1  29 N10       30.44F WCI  21
WINCHESTER     SUNNY     30   3  31 N9        30.43F WCI  22
MCMINNVILLE    SUNNY     30   3  31 N10       30.44F WCI  21
COLUMBIA       SUNNY     32   5  32 VRB7      30.46F WCI  26
SHELBYVILLE    SUNNY     32   7  34 NW10      30.48F WCI  24
$$

TNZ017-018-042-046-047-132100-
NORTHEAST TENNESSEE

CITY           SKY/WX    TMP DP  RH WIND       PRES   REMARKS
TRI CITIES     MOSUNNY   26   7  44 NW9       30.34F WCI  17
$$

TNZ012-013-036-069-073-074-132100-
CENTRAL EAST TENNESSEE

CITY           SKY/WX    TMP DP  RH WIND       PRES   REMARKS
KNOXVILLE      SUNNY     31   5  33 NW6       30.41S WCI  25
OAK RIDGE      SUNNY     33   0  24 MISG      30.42F
GATLINBURG     CLEAR     27   7  43 VRB3      30.40R
MORRISTOWN     CLEAR     27   5  39 N10       30.37S WCI  17
$$

TNZ083-085-099-132100-
SOUTHEAST TENNESSEE

CITY           SKY/WX    TMP DP  RH WIND       PRES   REMARKS
CHATTANOOGA    SUNNY     38   0  20 NW12G17   30.41F WCI  30
$$

SKY/WX REPORTED AS FAIR MEANS FEW OR NO CLOUDS BELOW
12 THOUSAND FEET.




USA.gov is the U.S. government's official web portal to all federal, state and local government web resources and services.